This is the latest recevied weather packets stored in our database for station/object OE-11061. If no packets are shown the sender has not sent any weather packets the latest 10 day(s).
| Time | Temp. | Humidity | Pressure | Rain* | Wind** | Luminosity | Snow |
|---|---|---|---|---|---|---|---|
| 1788507322 | 23.33° C | 54% | 1019.4 hPa | 0 mm | - | 403 W/m² | - |
| 1788506722 | 22.78° C | 55% | 1019.7 hPa | 0 mm | - | 381 W/m² | - |
| 1788505895 | 22.22° C | 53% | 1020 hPa | 0 mm | - | 336 W/m² | - |
| 1788505522 | 21.67° C | 61% | 1020.1 hPa | 0 mm | - | 329 W/m² | - |
| 1788504922 | 20.56° C | 64% | 1020.2 hPa | 0 mm | - | 284 W/m² | - |
| 1788504095 | 20.56° C | 66% | 1020.3 hPa | 0 mm | - | 269 W/m² | - |
| 1788503722 | 20° C | 66% | 1020.4 hPa | 0 mm | - | 217 W/m² | - |
| 1788503122 | 20° C | 68% | 1020.4 hPa | 0 mm | - | 202 W/m² | - |
| 1788502295 | 20° C | 70% | 1020.5 hPa | 0 mm | - | 119 W/m² | - |
| 1788501922 | 19.44° C | 71% | 1020.6 hPa | 0 mm | - | 97 W/m² | - |
| 1788501322 | 19.44° C | 66% | 1020.6 hPa | 0 mm | - | 82 W/m² | - |
| 1788500495 | 18.89° C | 67% | 1020.5 hPa | 0 mm | - | 60 W/m² | - |
| 1788500122 | 18.89° C | 68% | 1020.5 hPa | 0 mm | - | 37 W/m² | - |
| 1788499522 | 18.89° C | 68% | 1020.3 hPa | 0 mm | - | 30 W/m² | - |
| 1788498694 | 18.33° C | 67% | 1020.3 hPa | 0 mm | - | 22 W/m² | - |
| 1788498322 | 18.33° C | 68% | 1020.6 hPa | 0 mm | - | 7 W/m² | - |
| 1788497722 | 18.33° C | 68% | 1020.3 hPa | 0 mm | - | 7 W/m² | - |
| 1788496894 | 18.89° C | 68% | 1020.5 hPa | 0 mm | - | 0 W/m² | - |
| 1788496522 | 18.89° C | 66% | 1020.5 hPa | 0 mm | - | 0 W/m² | - |
| 1788495922 | 19.44° C | 67% | 1020.5 hPa | 0 mm | - | 0 W/m² | - |
| 1788495095 | 19.44° C | 65% | 1020.5 hPa | 0 mm | - | 0 W/m² | - |
| 1788494722 | 19.44° C | 65% | 1020.5 hPa | 0 mm | - | 0 W/m² | - |
| 1788494122 | 19.44° C | 63% | 1020.5 hPa | 0 mm | - | 0 W/m² | - |
| 1788492922 | 19.44° C | 66% | 1020.5 hPa | 0 mm | - | 0 W/m² | - |
| 1788492322 | 19.44° C | 66% | 1020.5 hPa | 0 mm | - | 0 W/m² | - |
* Rain latest hour (hover to see other rain measurements)
** Current wind speed in m/s (hover to see current wind gust speed)